QPF
0.00 0.00 0.00 0.00 0.00 0.00 0.00 0.00 0.00 0.00 0.00 0.00 0.00 0.00 0.00 0.00 0.00 0.00 0.00 0.00 0.00 0.00 0.00 0.00 0.00 0.00 0.00 0.00 0.00 0.00 0.00 0.00 0.00 0.00 0.00 0.00 0.00 0.00 0.00 0.00 0.00 0.00 0.00 0.00 0.00 0.00 0.00 0.00 0.00 0.00 0.00 0.00 0.00 0.00
0.00 0.00 0.00 0.00 0.00 0.00 0.00 0.00 0.00 0.00 0.00 0.00 0.00 0.00 0.00 0.00 0.00 0.00 0.00 0.00 0.00 0.00 0.00 0.00 0.00 0.00 0.00 0.00 0.00 0.00 0.00 0.00 0.00 0.00 0.00 0.00 0.00 0.00 0.00 0.01 0.00 0.00 0.00 0.00 0.01 0.02 0.00 0.00 0.00 0.00 0.00 0.00 0.00 0.00
0.00 0.00 0.00 0.00 0.00 0.00 0.00 0.00 0.00 0.00 0.00 0.00 0.00 0.00 0.00 0.00 0.00 0.00 0.00 0.00 0.00 0.00 0.00 0.00 0.00 0.00 0.00 0.00 0.00 0.00 0.00 0.00 0.00 0.00 0.00 0.00 0.00 0.00 0.00 0.00 0.00 0.00 0.00 0.00 0.00 0.02 0.01 0.01 0.01 0.01 0.00 0.00 0.01 0.04
0.00 0.00 0.00 0.00 0.00 0.00 0.00 0.00 0.00 0.00 0.00 0.00 0.00 0.00 0.00 0.00 0.00 0.00 0.00 0.00 0.00 0.00 0.00 0.00 0.00 0.00 0.00 0.00 0.00 0.00 0.00 0.00 0.00 0.00 0.00 0.00 0.00 0.00 0.00 0.00 0.00 0.00 0.00 0.00 0.00 0.00 0.00 0.00 0.00 0.00 0.00 0.00 0.00 0.04
0.00 0.00 0.00 0.00 0.00 0.00 0.00 0.00 0.00 0.00 0.00 0.00 0.00 0.00 0.00 0.00 0.00 0.00 0.00 0.00 0.00 0.00 0.00 0.00 0.00 0.00 0.00 0.00 0.00 0.00 0.00 0.00 0.00 0.00 0.00 0.00 0.00 0.00 0.00 0.00 0.00 0.00 0.00 0.00 0.00 0.00 0.00 0.00 0.00 0.00 0.00 0.00 0.00 0.00
0.00 0.00 0.00 0.00 0.00 0.00 0.00 0.00 0.00 0.00 0.00 0.00 0.00 0.00 0.00 0.00 0.00 0.00 0.00 0.00 0.00 0.00 0.00 0.00 0.00 0.00 0.00 0.00 0.00 0.00 0.00 0.00 0.00 0.00 0.00 0.00 0.00 0.00 0.00 0.00 0.00 0.00 0.00 0.00 0.00 0.00 0.00 0.00 0.00 0.00 0.00 0.00 0.00 0.00
0.00 0.00 0.00 0.00 0.00 0.00 0.00 0.00 0.00 0.00 0.00 0.00 0.00 0.00 0.00 0.00 0.00 0.00 0.00 0.00 0.00 0.00 0.00 0.00 0.00 0.00 0.00 0.00 0.00 0.00 0.00 0.00 0.00 0.00 0.00 0.00 0.00 0.00 0.00 0.00 0.00 0.00 0.00 0.00 0.00 0.00 0.00 0.00 0.00 0.00 0.00 0.00 0.00 0.00
0.00 0.00 0.00 0.00 0.00 0.00 0.00 0.00 0.00 0.00 0.00 0.00 0.00 0.00 0.00 0.00 0.00 0.00 0.00 0.00 0.00 0.00 0.00 0.00 0.00 0.00 0.00 0.00 0.00 0.00 0.00 0.00 0.00 0.00 0.00 0.00 0.00 0.00 0.00 0.00 0.00 0.00 0.00 0.00 0.00 0.00 0.00 0.00 0.00 0.00 0.00 0.00 0.00 0.00
0.00 0.00 0.00 0.00 0.00 0.00 0.00 0.00 0.00 0.00 0.00 0.00 0.00 0.00 0.00 0.00 0.00 0.00 0.00 0.00 0.00 0.00 0.00 0.00 0.00 0.00 0.00 0.00 0.00 0.00 0.00 0.00 0.00 0.00 0.00 0.00 0.00 0.00 0.00 0.00 0.00 0.00 0.00 0.00 0.00 0.00 0.00 0.00 0.00 0.00 0.00 0.00 0.01 0.01
0.00 0.00 0.00 0.00 0.00 0.00 0.00 0.00 0.00 0.00 0.00 0.00 0.00 0.00 0.00 0.00 0.00 0.00 0.00 0.00 0.00 0.00 0.00 0.00 0.00 0.00 0.00 0.00 0.00 0.00 0.00 0.00 0.00 0.00 0.00 0.00 0.00 0.00 0.00 0.00 0.00 0.00 0.00 0.00 0.00 0.00 0.00 0.00 0.04 0.03 0.02 0.01 0.02 0.04
0.00 0.00 0.00 0.00 0.00 0.00 0.00 0.00 0.00 0.00 0.00 0.00 0.00 0.00 0.00 0.00 0.00 0.00 0.00 0.00 0.00 0.00 0.00 0.00 0.00 0.00 0.00 0.00 0.00 0.00 0.00 0.00 0.00 0.00 0.00 0.00 0.00 0.00 0.00 0.00 0.00 0.00 0.00 0.00 0.00 0.00 0.00 0.01 0.03 0.07 0.06 0.02 0.04 0.04
0.00 0.00 0.00 0.00 0.00 0.00 0.00 0.00 0.00 0.00 0.00 0.00 0.00 0.00 0.00 0.00 0.00 0.00 0.00 0.00 0.00 0.00 0.00 0.00 0.00 0.00 0.00 0.00 0.00 0.00 0.00 0.00 0.00 0.00 0.00 0.00 0.00 0.00 0.00 0.00 0.00 0.00 0.00 0.00 0.00 0.00 0.01 0.01 0.02 0.05 0.04 0.08 0.13 0.11
0.00 0.01 0.00 0.00 0.00 0.01 0.00 0.00 0.00 0.00 0.00 0.00 0.00 0.00 0.00 0.00 0.00 0.00 0.00 0.00 0.00 0.00 0.00 0.00 0.00 0.00 0.00 0.00 0.00 0.00 0.00 0.00 0.00 0.00 0.00 0.00 0.00 0.00 0.00 0.00 0.00 0.00 0.00 0.00 0.00 0.00 0.01 0.00 0.00 0.00 0.01 0.04 0.06 0.05
0.00 0.01 0.00 0.00 0.00 0.01 0.00 0.00 0.00 0.00 0.00 0.00 0.00 0.00 0.00 0.00 0.00 0.00 0.00 0.00 0.00 0.00 0.00 0.00 0.00 0.00 0.00 0.00 0.00 0.00 0.00 0.00 0.00 0.00 0.00 0.00 0.00 0.00 0.00 0.00 0.01 0.01 0.02 0.00 0.00 0.00 0.00 0.00 0.00 0.00 0.00 0.00 0.00 0.00
0.01 0.01 0.01 0.00 0.01 0.01 0.00 0.00 0.00 0.00 0.00 0.00 0.00 0.00 0.00 0.00 0.00 0.00 0.00 0.00 0.00 0.00 0.00 0.00 0.00 0.00 0.00 0.00 0.00 0.00 0.00 0.00 0.00 0.00 0.00 0.00 0.00 0.00 0.00 0.01 0.03 0.03 0.01 0.00 0.00 0.00 0.00 0.00 0.00 0.00 0.00 0.00 0.00 0.00
0.02 0.01 0.01 0.01 0.01 0.00 0.00 0.00 0.00 0.00 0.00 0.00 0.00 0.00 0.00 0.00 0.00 0.00 0.00 0.00 0.00 0.00 0.00 0.00 0.00 0.00 0.00 0.00 0.00 0.00 0.00 0.00 0.00 0.00 0.00 0.00 0.00 0.00 0.02 0.02 0.01 0.00 0.00 0.00 0.00 0.00 0.00 0.00 0.00 0.00 0.00 0.00 0.00 0.00
0.01 0.00 0.01 0.01 0.00 0.00 0.00 0.00 0.00 0.00 0.00 0.00 0.00 0.00 0.00 0.00 0.00 0.00 0.00 0.00 0.00 0.00 0.00 0.00 0.00 0.00 0.00 0.00 0.00 0.00 0.00 0.00 0.00 0.00 0.00 0.00 0.00 0.01 0.01 0.01 0.00 0.00 0.00 0.00 0.00 0.00 0.00 0.00 0.00 0.00 0.00 0.00 0.00 0.00
0.00 0.01 0.00 0.00 0.00 0.00 0.00 0.00 0.00 0.00 0.00 0.00 0.01 0.01 0.00 0.00 0.00 0.00 0.00 0.00 0.00 0.00 0.00 0.00 0.00 0.00 0.00 0.00 0.00 0.00 0.00 0.00 0.00 0.00 0.00 0.00 0.02 0.03 0.00 0.00 0.00 0.00 0.00 0.00 0.00 0.00 0.00 0.00 0.00 0.00 0.00 0.00 0.00 0.00
0.00 0.00 0.00 0.00 0.00 0.00 0.00 0.00 0.00 0.00 0.00 0.00 0.01 0.01 0.00 0.00 0.00 0.00 0.00 0.00 0.00 0.00 0.00 0.00 0.00 0.00 0.00 0.00 0.00 0.00 0.00 0.00 0.00 0.00 0.00 0.00 0.01 0.00 0.00 0.00 0.00 0.00 0.00 0.00 0.00 0.00 0.02 0.00 0.00 0.00 0.00 0.00 0.00 0.00
0.00 0.00 0.00 0.00 0.00 0.00 0.00 0.00 0.00 0.00 0.00 0.00 0.00 0.00 0.00 0.00 0.00 0.00 0.00 0.00 0.00 0.00 0.00 0.00 0.00 0.00 0.00 0.00 0.00 0.00 0.00 0.00 0.00 0.00 0.00 0.00 0.00 0.00 0.00 0.00 0.00 0.00 0.00 0.00 0.01 0.00 0.02 0.01 0.00 0.00 0.00 0.00 0.00 0.00
0.00 0.00 0.00 0.00 0.00 0.00 0.00 0.00 0.00 0.00 0.00 0.00 0.00 0.00 0.00 0.00 0.00 0.00 0.00 0.00 0.00 0.00 0.00 0.00 0.00 0.00 0.00 0.00 0.00 0.00 0.00 0.00 0.00 0.00 0.00 0.00 0.00 0.00 0.00 0.00 0.00 0.00 0.00 0.00 0.00 0.01 0.03 0.02 0.01 0.00 0.00 0.00 0.00 0.00
0.00 0.00 0.00 0.00 0.00 0.00 0.00 0.00 0.00 0.00 0.00 0.00 0.00 0.00 0.00 0.00 0.00 0.00 0.00 0.00 0.00 0.00 0.00 0.00 0.00 0.00 0.00 0.00 0.00 0.00 0.00 0.00 0.00 0.00 0.00 0.00 0.00 0.00 0.00 0.00 0.00 0.00 0.00 0.00 0.00 0.02 0.01 0.02 0.02 0.01 0.00 0.01 0.00 0.00
0.00 0.00 0.00 0.00 0.00 0.00 0.00 0.00 0.00 0.00 0.00 0.00 0.00 0.00 0.00 0.00 0.00 0.00 0.00 0.00 0.00 0.00 0.00 0.00 0.00 0.00 0.00 0.00 0.00 0.00 0.00 0.00 0.00 0.00 0.00 0.00 0.00 0.00 0.00 0.00 0.00 0.00 0.00 0.00 0.01 0.02 0.00 0.00 0.00 0.00 0.00 0.01 0.00 0.00
0.00 0.00 0.00 0.00 0.00 0.00 0.00 0.00 0.00 0.00 0.00 0.00 0.00 0.00 0.00 0.00 0.00 0.00 0.00 0.00 0.00 0.00 0.00 0.00 0.00 0.00 0.00 0.00 0.00 0.00 0.00 0.00 0.00 0.00 0.00 0.00 0.00 0.00 0.00 0.00 0.00 0.00 0.00 0.00 0.00 0.00 0.00 0.00 0.00 0.00 0.00 0.00 0.00 0.00
0.00 0.00 0.00 0.00 0.00 0.00 0.00 0.00 0.00 0.00 0.00 0.00 0.00 0.00 0.00 0.00 0.00 0.00 0.00 0.00 0.01 0.01 0.00 0.00 0.00 0.00 0.00 0.00 0.00 0.00 0.00 0.00 0.00 0.00 0.00 0.00 0.00 0.00 0.00 0.00 0.00 0.00 0.00 0.00 0.00 0.00 0.00 0.00 0.00 0.00 0.00 0.00 0.00 0.00
0.00 0.00 0.00 0.00 0.00 0.00 0.00 0.00 0.00 0.00 0.00 0.00 0.00 0.00 0.00 0.00 0.00 0.00 0.00 0.00 0.00 0.00 0.01 0.00 0.00 0.00 0.00 0.00 0.00 0.00 0.00 0.00 0.00 0.00 0.00 0.00 0.00 0.00 0.00 0.01 0.00 0.00 0.00 0.00 0.00 0.00 0.00 0.00 0.00 0.00 0.00 0.00 0.00 0.00
0.00 0.00 0.00 0.00 0.00 0.00 0.00 0.00 0.00 0.00 0.00 0.00 0.00 0.00 0.00 0.00 0.00 0.00 0.00 0.01 0.00 0.00 0.00 0.00 0.00 0.00 0.00 0.00 0.00 0.00 0.00 0.00 0.00 0.00 0.00 0.00 0.00 0.00 0.00 0.00 0.00 0.00 0.00 0.00 0.00 0.00 0.00 0.00 0.00 0.00 0.00 0.00 0.00 0.00
0.00 0.00 0.00 0.00 0.00 0.00 0.00 0.00 0.00 0.00 0.00 0.00 0.00 0.00 0.00 0.00 0.00 0.00 0.00 0.00 0.00 0.00 0.00 0.00 0.00 0.00 0.00 0.00 0.00 0.00 0.00 0.00 0.00 0.00 0.00 0.00 0.00 0.00 0.00 0.00 0.00 0.00 0.00 0.00 0.00 0.00 0.00 0.00 0.00 0.00 0.00 0.00 0.00 0.00
0.00 0.00 0.00 0.00 0.00 0.00 0.00 0.00 0.00 0.00 0.00 0.00 0.00 0.00 0.00 0.00 0.00 0.00 0.00 0.00 0.00 0.00 0.00 0.00 0.00 0.00 0.00 0.00 0.00 0.00 0.00 0.00 0.00 0.00 0.00 0.00 0.00 0.00 0.00 0.00 0.00 0.00 0.00 0.00 0.00 0.00 0.00 0.00 0.00 0.00 0.00 0.00 0.00 0.00
0.00 0.00 0.00 0.00 0.00 0.00 0.00 0.00 0.00 0.00 0.00 0.00 0.00 0.00 0.00 0.00 0.00 0.00 0.00 0.00 0.00 0.00 0.00 0.00 0.00 0.00 0.00 0.00 0.00 0.00 0.00 0.00 0.00 0.00 0.00 0.00 0.00 0.00 0.00 0.00 0.00 0.00 0.00 0.00 0.00 0.00 0.00 0.00 0.00 0.00 0.00 0.00 0.00 0.00
0.00 0.00 0.00 0.00 0.00 0.00 0.00 0.00 0.00 0.00 0.00 0.00 0.00 0.00 0.00 0.00 0.00 0.00 0.00 0.00 0.00 0.00 0.00 0.00 0.00 0.00 0.00 0.00 0.00 0.00 0.00 0.00 0.00 0.00 0.00 0.00 0.00 0.00 0.00 0.00 0.00 0.00 0.00 0.00 0.00 0.00 0.00 0.00 0.00 0.00 0.00 0.01 0.01 0.01
0.00 0.00 0.00 0.00 0.00 0.00 0.00 0.00 0.00 0.00 0.00 0.00 0.00 0.00 0.00 0.00 0.00 0.00 0.00 0.00 0.00 0.00 0.00 0.00 0.00 0.00 0.00 0.00 0.00 0.00 0.00 0.00 0.00 0.00 0.00 0.00 0.00 0.00 0.00 0.00 0.00 0.00 0.00 0.00 0.00 0.00 0.01 0.00 0.00 0.00 0.00 0.00 0.00 0.00
0.00 0.00 0.00 0.00 0.00 0.00 0.00 0.00 0.00 0.00 0.00 0.00 0.00 0.00 0.00 0.00 0.00 0.00 0.00 0.00 0.00 0.00 0.00 0.00 0.00 0.00 0.00 0.00 0.01 0.00 0.00 0.00 0.00 0.00 0.00 0.00 0.00 0.00 0.00 0.00 0.00 0.00 0.00 0.00 0.00 0.00 0.00 0.00 0.00 0.00 0.00 0.00 0.00 0.00
MSLP
1013.99 1014.26 1014.62 1015.22 1015.89 1016.64 1017.29 1017.86 1018.47 1018.89 1019.10 1019.22 1019.39 1019.45 1019.35 1019.14 1018.93 1018.98 1018.11 1017.59 1017.66 1017.30 1015.25 1013.90 1013.07 1012.70 1012.24 1012.07 1012.14 1011.78 1011.70 1011.49 1011.73 1012.49 1012.94 1012.76 1012.41 1011.86 1011.66 1011.54 1011.59 1012.24 1012.60 1012.75 1012.63 1012.35 1012.25 1011.62 1011.03 1012.12 1013.74 1012.89 1012.06 1011.17
1013.27 1013.64 1014.01 1014.61 1015.23 1016.04 1016.73 1017.42 1018.01 1018.46 1018.68 1018.87 1019.06 1019.21 1019.19 1019.03 1018.88 1018.74 1018.51 1017.20 1017.17 1017.17 1015.28 1013.95 1012.76 1012.12 1012.06 1011.71 1011.88 1012.23 1012.50 1012.55 1012.62 1013.19 1013.59 1013.57 1013.20 1012.88 1013.00 1012.81 1012.41 1013.15 1013.29 1013.35 1013.64 1013.61 1013.23 1013.31 1013.75 1014.11 1013.84 1012.99 1012.01 1011.56
1012.82 1013.09 1013.45 1014.07 1014.73 1015.37 1016.18 1016.88 1017.55 1018.01 1018.27 1018.56 1018.77 1018.91 1019.00 1018.90 1018.78 1018.73 1018.66 1017.93 1017.47 1017.03 1015.22 1014.02 1012.26 1011.28 1011.29 1011.28 1011.18 1011.98 1012.57 1012.38 1012.74 1012.88 1013.55 1013.92 1013.85 1013.59 1013.60 1013.41 1013.24 1013.39 1013.26 1013.74 1014.12 1013.99 1013.66 1013.52 1013.88 1013.86 1013.52 1012.70 1012.42 1011.77
1012.34 1012.53 1012.85 1013.50 1014.24 1014.97 1015.77 1016.42 1017.09 1017.59 1017.95 1018.28 1018.48 1018.64 1018.74 1018.71 1018.63 1018.54 1018.84 1018.20 1018.05 1017.77 1016.54 1013.74 1012.03 1011.43 1010.51 1010.48 1010.84 1011.20 1011.84 1012.45 1012.91 1013.10 1013.66 1014.22 1014.11 1013.64 1013.84 1013.72 1013.78 1013.84 1013.64 1014.15 1014.25 1013.80 1013.26 1013.55 1013.74 1013.55 1012.92 1012.54 1012.18 1011.92
1011.89 1012.01 1012.32 1012.88 1013.64 1014.46 1015.36 1016.12 1016.72 1017.29 1017.69 1018.06 1018.28 1018.34 1018.48 1018.49 1018.41 1018.27 1018.30 1017.53 1017.33 1018.04 1016.97 1014.85 1012.71 1011.23 1010.69 1010.59 1010.98 1011.40 1012.07 1012.87 1013.55 1013.92 1014.34 1014.44 1013.85 1013.88 1014.14 1014.13 1014.15 1013.97 1014.07 1014.43 1014.54 1014.26 1014.40 1014.08 1013.69 1013.18 1013.00 1012.62 1012.28 1011.91
1011.54 1011.54 1011.83 1012.38 1013.04 1013.85 1014.83 1015.73 1016.38 1017.03 1017.49 1017.77 1017.96 1018.08 1018.27 1018.41 1018.35 1018.32 1018.11 1017.32 1017.11 1017.38 1017.07 1015.49 1013.20 1011.88 1011.02 1010.93 1011.33 1011.78 1012.43 1013.20 1013.69 1014.22 1014.29 1013.99 1013.67 1013.80 1014.50 1014.66 1014.15 1013.90 1014.01 1014.13 1014.16 1013.97 1014.12 1013.88 1013.63 1013.19 1012.98 1012.41 1011.80 1011.24
1011.18 1011.10 1011.32 1011.93 1012.66 1013.49 1014.46 1015.35 1016.06 1016.70 1017.19 1017.48 1017.72 1017.86 1018.05 1018.16 1018.60 1018.19 1017.58 1017.05 1016.90 1017.19 1016.86 1015.81 1013.95 1012.14 1011.45 1011.67 1012.19 1012.55 1012.83 1013.34 1013.69 1014.26 1014.38 1014.29 1014.08 1013.96 1014.76 1014.75 1013.97 1013.54 1013.55 1013.81 1013.95 1013.88 1014.01 1013.90 1013.54 1013.35 1012.92 1012.38 1012.00 1011.17
1010.96 1010.70 1010.89 1011.59 1012.35 1013.21 1014.23 1015.11 1015.83 1016.49 1017.05 1017.50 1017.70 1017.76 1017.84 1017.89 1017.91 1017.22 1015.65 1015.51 1016.81 1017.13 1016.69 1015.99 1014.68 1013.09 1011.88 1012.62 1013.20 1013.14 1013.50 1013.77 1013.94 1014.21 1014.41 1014.46 1014.50 1014.72 1015.03 1014.17 1013.50 1013.13 1013.40 1013.63 1013.57 1013.49 1013.72 1013.71 1013.49 1013.26 1012.92 1012.60 1012.16 1011.50
1010.84 1010.59 1010.71 1011.42 1012.21 1013.13 1014.11 1015.00 1015.75 1016.42 1017.03 1017.42 1017.55 1017.66 1017.88 1017.72 1017.19 1015.83 1015.39 1015.62 1016.09 1016.79 1016.51 1016.19 1015.26 1013.94 1012.74 1013.13 1013.42 1013.46 1013.72 1014.31 1014.32 1014.42 1014.65 1014.73 1015.23 1015.43 1015.21 1014.31 1013.35 1012.93 1013.18 1013.01 1012.89 1013.15 1013.19 1013.30 1013.23 1013.07 1012.71 1012.40 1012.16 1011.86
1010.77 1010.67 1010.87 1011.50 1012.27 1013.13 1013.98 1015.10 1015.85 1016.56 1017.04 1017.43 1017.73 1017.74 1017.17 1015.86 1015.13 1015.38 1015.65 1015.91 1016.00 1016.16 1016.21 1016.01 1015.11 1014.15 1013.52 1013.91 1014.13 1014.37 1014.38 1014.73 1014.75 1014.86 1014.80 1015.07 1015.79 1015.27 1014.67 1014.10 1013.14 1012.77 1012.71 1012.60 1012.82 1012.80 1012.88 1013.04 1013.12 1012.77 1012.61 1012.40 1012.17 1011.91
1010.81 1010.86 1011.13 1011.64 1012.41 1013.28 1014.16 1015.00 1016.01 1016.65 1017.12 1017.51 1017.50 1016.98 1015.84 1015.33 1015.34 1015.62 1015.83 1016.07 1016.05 1016.23 1015.74 1014.99 1014.60 1014.12 1013.58 1013.94 1014.44 1014.65 1014.86 1015.11 1015.19 1015.23 1015.12 1015.85 1015.93 1015.46 1014.71 1014.08 1013.21 1012.68 1012.22 1012.18 1012.33 1012.66 1012.69 1012.75 1013.05 1013.13 1012.87 1012.82 1012.81 1012.56
1011.08 1010.92 1011.22 1011.72 1012.47 1013.44 1014.27 1015.09 1015.91 1016.29 1016.68 1016.72 1016.82 1016.44 1015.98 1015.50 1015.58 1015.65 1015.49 1015.37 1015.26 1014.80 1014.45 1014.24 1013.91 1013.69 1013.51 1013.33 1014.05 1014.73 1014.96 1015.20 1015.30 1015.21 1015.56 1016.19 1016.02 1015.86 1015.60 1014.78 1013.78 1013.16 1012.73 1012.46 1012.33 1012.49 1012.92 1013.01 1013.10 1013.26 1013.32 1013.53 1013.39 1013.35
1011.14 1010.98 1011.17 1011.73 1012.58 1013.53 1014.25 1015.10 1015.71 1016.11 1016.25 1016.57 1016.72 1016.31 1015.77 1015.52 1015.49 1014.98 1014.56 1014.42 1014.09 1013.32 1013.26 1013.22 1013.71 1013.42 1013.41 1013.38 1014.23 1014.57 1014.92 1015.31 1015.16 1015.73 1016.20 1016.35 1016.09 1016.25 1016.10 1015.33 1014.48 1013.70 1013.41 1012.78 1012.65 1012.65 1012.91 1013.24 1013.18 1013.56 1014.01 1014.10 1013.89 1014.10
1010.73 1010.81 1011.03 1011.63 1012.62 1013.49 1014.31 1015.09 1015.58 1016.15 1016.53 1016.52 1016.05 1015.79 1015.17 1014.59 1014.01 1013.33 1013.05 1012.84 1012.42 1012.25 1012.35 1012.69 1013.40 1013.24 1013.54 1013.85 1014.36 1014.78 1014.97 1015.09 1015.70 1016.31 1016.54 1016.40 1016.44 1016.51 1016.30 1015.82 1015.25 1014.93 1014.43 1013.83 1013.50 1013.50 1013.59 1013.87 1014.06 1014.31 1014.35 1014.44 1014.55 1014.72
1009.95 1010.10 1010.66 1011.67 1012.66 1013.60 1014.60 1015.32 1015.87 1016.38 1016.36 1015.90 1015.29 1014.66 1014.02 1013.12 1012.78 1012.52 1012.39 1012.34 1011.84 1011.64 1012.01 1012.58 1013.13 1013.33 1014.04 1014.24 1014.60 1014.92 1015.21 1015.52 1015.97 1016.51 1016.54 1016.44 1016.59 1016.51 1016.26 1015.94 1015.51 1015.24 1015.11 1014.99 1014.36 1014.31 1014.19 1014.20 1014.58 1014.93 1014.84 1014.92 1015.10 1015.32
1008.71 1009.58 1010.17 1011.78 1012.81 1013.89 1014.81 1015.54 1016.18 1016.39 1016.21 1015.68 1014.84 1013.76 1012.82 1012.74 1012.31 1012.08 1011.95 1011.99 1011.48 1011.69 1011.89 1012.35 1013.48 1013.99 1014.48 1014.63 1014.99 1015.30 1015.57 1015.81 1016.20 1016.29 1016.27 1016.43 1016.47 1016.39 1016.12 1015.78 1015.65 1015.64 1015.51 1015.44 1014.91 1014.59 1014.48 1014.61 1014.72 1015.11 1015.42 1015.80 1015.93 1016.07
1007.77 1008.63 1010.55 1012.14 1013.23 1014.38 1015.07 1015.68 1016.57 1016.22 1015.48 1014.49 1013.59 1012.72 1012.61 1012.42 1012.14 1011.69 1011.51 1011.41 1011.37 1011.57 1012.97 1013.15 1013.89 1014.54 1014.74 1015.19 1015.64 1015.82 1015.82 1015.95 1016.02 1016.10 1016.12 1016.14 1016.13 1016.15 1016.14 1016.19 1016.10 1016.01 1015.87 1015.40 1015.05 1014.85 1014.75 1014.71 1014.83 1015.34 1015.82 1016.16 1016.19 1016.37
1008.92 1010.44 1011.80 1012.73 1013.83 1014.54 1015.14 1015.73 1016.12 1015.54 1014.78 1013.77 1013.38 1012.71 1012.27 1011.85 1011.72 1011.58 1011.41 1011.21 1011.29 1012.14 1012.84 1013.55 1013.99 1014.73 1015.40 1015.76 1016.00 1015.77 1015.96 1016.10 1016.14 1016.12 1016.00 1016.05 1015.97 1016.04 1016.10 1016.08 1015.82 1015.68 1015.61 1015.48 1015.37 1015.31 1015.28 1015.20 1015.32 1015.77 1016.06 1016.36 1016.67 1016.78
1010.77 1011.64 1012.65 1013.48 1013.83 1014.26 1015.13 1015.72 1015.51 1014.72 1013.91 1013.37 1012.83 1012.33 1012.06 1012.06 1012.03 1011.74 1011.56 1011.40 1011.59 1011.97 1012.82 1013.92 1014.77 1015.46 1015.69 1015.82 1015.89 1015.94 1016.01 1016.21 1016.25 1016.18 1016.01 1015.84 1015.99 1016.10 1016.14 1015.99 1015.92 1015.90 1015.77 1015.62 1015.51 1015.51 1015.56 1015.63 1015.64 1015.90 1016.01 1016.16 1016.54 1016.69
1012.28 1012.87 1013.26 1013.62 1013.77 1014.55 1015.31 1015.12 1014.67 1014.49 1013.60 1012.94 1012.69 1012.41 1012.37 1012.64 1012.51 1012.39 1012.12 1012.17 1012.51 1012.97 1014.05 1014.77 1015.22 1015.24 1015.42 1015.60 1015.65 1015.81 1015.84 1015.93 1016.09 1016.30 1016.26 1016.10 1016.01 1016.13 1016.18 1016.10 1015.98 1015.80 1015.68 1015.59 1015.55 1015.73 1015.66 1015.78 1016.14 1016.24 1016.52 1016.79 1017.11 1017.22
1013.41 1014.28 1014.59 1014.99 1015.15 1015.39 1015.00 1014.29 1014.02 1013.47 1012.87 1012.73 1012.76 1012.70 1013.08 1012.99 1013.26 1013.27 1013.29 1013.16 1013.50 1014.58 1014.97 1014.99 1014.97 1014.93 1015.11 1015.19 1015.28 1015.38 1015.49 1015.63 1015.94 1015.98 1016.01 1016.17 1016.12 1016.20 1016.33 1016.29 1016.12 1016.03 1015.81 1015.66 1015.70 1015.83 1015.98 1016.03 1015.81 1015.93 1016.20 1016.40 1016.53 1016.51
1014.55 1014.92 1015.02 1015.12 1014.94 1014.62 1014.26 1013.45 1013.37 1012.92 1012.74 1012.84 1012.90 1013.11 1013.79 1014.21 1014.25 1013.99 1013.79 1013.98 1014.68 1014.74 1014.74 1014.85 1014.85 1015.06 1015.23 1015.10 1015.11 1015.28 1015.46 1015.66 1015.74 1015.78 1015.88 1015.98 1016.28 1016.42 1016.41 1016.28 1016.28 1016.19 1016.12 1016.11 1016.07 1016.05 1016.06 1016.11 1015.97 1016.12 1016.12 1016.12 1016.14 1016.11
1014.76 1014.93 1014.71 1014.25 1014.29 1014.31 1013.58 1012.82 1012.87 1012.85 1013.23 1013.55 1013.62 1014.06 1014.56 1014.55 1014.46 1014.22 1014.72 1015.03 1015.02 1014.74 1014.62 1014.67 1014.83 1015.00 1015.10 1015.09 1015.16 1015.33 1015.41 1015.54 1015.72 1015.84 1015.93 1016.00 1016.07 1016.17 1016.22 1016.27 1016.30 1016.28 1016.14 1016.04 1015.94 1015.80 1015.76 1015.66 1015.78 1015.94 1016.08 1016.21 1016.31 1016.26
1014.34 1014.39 1014.17 1014.06 1014.01 1013.73 1013.10 1012.98 1012.96 1013.26 1013.45 1013.82 1014.25 1014.68 1014.85 1014.74 1014.67 1014.93 1015.45 1015.42 1015.16 1014.98 1014.94 1014.93 1014.95 1015.28 1015.35 1015.42 1015.57 1015.49 1015.58 1015.63 1015.71 1015.79 1015.87 1016.04 1016.09 1016.01 1015.90 1015.95 1015.86 1015.64 1015.58 1015.65 1015.73 1015.68 1015.73 1015.72 1015.72 1015.82 1015.76 1015.80 1016.00 1016.18
1014.72 1014.80 1014.58 1014.44 1014.03 1013.69 1013.49 1013.53 1013.62 1013.67 1014.05 1014.24 1014.49 1014.68 1014.74 1014.76 1015.09 1015.50 1015.77 1015.78 1015.59 1015.45 1015.53 1015.38 1015.36 1015.44 1015.51 1015.48 1015.57 1015.45 1015.34 1015.48 1015.62 1015.70 1015.52 1015.52 1015.56 1015.59 1015.63 1015.59 1015.48 1015.37 1015.29 1015.51 1015.58 1015.43 1015.39 1015.29 1015.27 1015.17 1015.14 1015.16 1015.16 1015.37
1014.26 1014.18 1014.10 1013.89 1013.85 1013.60 1013.55 1013.74 1013.73 1013.89 1014.01 1014.22 1014.36 1014.38 1014.46 1014.71 1015.25 1015.93 1015.90 1015.66 1015.76 1015.68 1015.66 1015.62 1015.66 1015.70 1015.63 1015.50 1015.58 1015.46 1015.28 1015.19 1015.31 1015.19 1014.94 1014.94 1015.08 1015.16 1015.25 1015.38 1015.32 1014.90 1014.65 1014.78 1014.86 1014.88 1014.93 1014.97 1014.96 1014.67 1014.63 1014.56 1014.54 1014.67
1014.81 1014.43 1014.05 1013.65 1013.56 1013.34 1013.66 1013.65 1013.64 1013.85 1014.07 1014.15 1014.36 1014.46 1014.58 1014.90 1015.52 1015.87 1015.59 1015.56 1015.59 1015.41 1015.28 1015.22 1015.32 1015.41 1015.51 1015.39 1015.26 1015.08 1015.07 1015.08 1014.97 1014.82 1014.62 1014.55 1014.51 1014.61 1014.88 1014.81 1014.69 1014.32 1014.17 1014.29 1014.29 1014.22 1014.29 1014.43 1014.37 1014.30 1014.35 1014.13 1014.06 1014.10
1015.11 1014.81 1014.62 1014.18 1013.70 1013.58 1013.91 1014.15 1014.45 1014.79 1014.68 1014.57 1014.50 1014.91 1015.07 1015.30 1015.56 1015.53 1015.34 1015.12 1015.10 1015.03 1015.06 1015.07 1014.99 1015.02 1015.00 1014.89 1014.81 1014.84 1014.87 1014.74 1014.55 1014.23 1014.01 1014.02 1013.91 1013.85 1013.85 1013.85 1013.76 1013.62 1013.67 1013.58 1013.52 1013.44 1013.68 1013.77 1013.87 1013.95 1014.04 1013.94 1013.73 1013.65
1015.58 1015.12 1014.68 1014.70 1014.56 1014.87 1015.39 1015.50 1015.59 1015.48 1015.45 1015.14 1015.41 1015.59 1015.48 1015.36 1015.16 1015.14 1015.02 1014.92 1014.98 1015.05 1015.21 1015.14 1014.96 1014.84 1014.79 1014.72 1014.69 1014.64 1014.53 1014.50 1014.60 1014.53 1014.40 1014.39 1014.08 1013.48 1013.34 1013.32 1013.22 1013.12 1013.20 1013.24 1013.08 1013.05 1013.05 1013.19 1013.32 1013.52 1013.67 1013.60 1013.50 1013.40
1016.09 1015.53 1015.61 1015.64 1015.88 1016.28 1016.26 1016.10 1015.96 1015.76 1015.56 1015.50 1015.60 1015.67 1015.63 1015.31 1014.98 1014.74 1014.76 1014.85 1014.98 1014.99 1014.80 1014.74 1014.65 1014.68 1014.69 1014.60 1014.56 1014.49 1014.26 1014.20 1014.15 1014.13 1014.00 1013.85 1013.61 1013.13 1013.03 1013.10 1012.98 1012.81 1012.69 1012.73 1012.86 1012.88 1012.93 1013.04 1013.08 1013.14 1013.24 1013.25 1013.27 1013.22
1016.35 1016.17 1016.30 1016.50 1016.61 1016.57 1016.46 1016.29 1016.11 1015.94 1015.91 1015.89 1015.92 1016.01 1015.93 1015.53 1014.93 1014.48 1014.49 1014.47 1014.49 1014.45 1014.64 1014.71 1014.50 1014.39 1014.32 1014.13 1014.07 1014.09 1014.09 1013.75 1013.53 1013.34 1013.29 1013.11 1012.95 1012.49 1012.27 1012.13 1012.12 1012.01 1011.99 1012.10 1012.32 1012.41 1012.50 1012.55 1012.53 1012.58 1012.70 1012.75 1012.55 1012.58
1016.93 1017.07 1017.07 1017.05 1016.91 1016.63 1016.42 1016.35 1016.23 1016.05 1015.99 1015.98 1015.93 1015.78 1015.64 1015.62 1015.22 1014.54 1014.12 1014.13 1014.40 1014.63 1014.56 1014.30 1014.12 1013.95 1013.75 1013.80 1013.75 1013.71 1013.52 1013.39 1013.17 1012.99 1012.73 1012.52 1012.43 1012.24 1011.78 1011.58 1011.46 1011.41 1011.40 1011.57 1011.76 1011.82 1011.85 1011.91 1011.89 1011.90 1011.81 1011.85 1011.96 1011.97
1017.30 1017.10 1016.94 1016.86 1016.71 1016.48 1016.36 1016.20 1015.99 1015.81 1015.71 1015.66 1015.59 1015.37 1015.13 1015.16 1014.80 1014.37 1013.83 1013.71 1013.98 1014.14 1014.22 1014.09 1013.87 1013.57 1013.24 1013.12 1013.06 1012.82 1012.70 1012.63 1012.46 1012.45 1012.36 1012.25 1012.41 1012.44 1012.05 1011.71 1011.55 1011.42 1011.42 1011.43 1011.33 1011.03 1010.87 1010.98 1011.09 1011.09 1011.09 1011.22 1011.30 1011.31
Thickness
5564 5561 5558 5551 5545 5537 5529 5527 5524 5523 5525 5528 5532 5538 5544 5549 5556 5563 5576 5583 5586 5586 5605 5624 5634 5634 5637 5638 5637 5646 5649 5652 5649 5643 5643 5645 5649 5660 5660 5669 5672 5665 5663 5660 5664 5675 5676 5698 5707 5692 5678 5689 5703 5712
5563 5558 5555 5550 5544 5538 5531 5526 5523 5522 5523 5525 5529 5534 5539 5545 5552 5560 5568 5581 5584 5588 5607 5621 5633 5639 5640 5646 5639 5636 5639 5638 5642 5636 5633 5633 5644 5642 5641 5642 5664 5650 5655 5655 5663 5657 5674 5678 5674 5673 5675 5686 5697 5700
5557 5553 5550 5546 5542 5537 5531 5526 5523 5520 5521 5523 5526 5531 5536 5542 5549 5557 5563 5572 5581 5586 5603 5614 5626 5642 5644 5647 5651 5632 5631 5640 5640 5640 5633 5630 5633 5632 5633 5639 5651 5651 5657 5653 5652 5657 5663 5670 5668 5669 5674 5687 5688 5694
5551 5548 5546 5541 5537 5533 5528 5523 5520 5518 5518 5519 5522 5527 5532 5538 5545 5553 5558 5569 5572 5575 5586 5611 5631 5637 5648 5649 5649 5645 5640 5635 5633 5634 5628 5622 5627 5633 5626 5635 5638 5640 5649 5642 5645 5655 5663 5662 5660 5663 5672 5680 5685 5688
5544 5542 5540 5537 5533 5528 5523 5520 5517 5514 5512 5513 5517 5522 5528 5534 5542 5550 5558 5569 5573 5572 5583 5596 5616 5633 5639 5642 5640 5638 5632 5626 5621 5622 5619 5618 5623 5626 5621 5626 5629 5633 5635 5628 5627 5641 5641 5646 5653 5661 5662 5668 5673 5675
5534 5534 5532 5529 5528 5524 5519 5515 5513 5509 5508 5509 5513 5517 5523 5528 5536 5546 5556 5565 5570 5572 5579 5591 5610 5623 5634 5635 5634 5631 5624 5617 5615 5613 5614 5616 5620 5618 5610 5613 5625 5629 5630 5629 5630 5636 5636 5641 5645 5653 5655 5659 5666 5671
5523 5525 5524 5521 5519 5517 5512 5510 5508 5506 5504 5505 5507 5512 5518 5524 5530 5539 5554 5563 5567 5570 5576 5588 5595 5617 5626 5621 5616 5617 5615 5612 5611 5605 5608 5609 5613 5612 5603 5607 5624 5627 5627 5626 5626 5629 5629 5632 5635 5641 5647 5654 5657 5665
5513 5516 5516 5512 5510 5509 5504 5502 5502 5501 5499 5499 5502 5507 5512 5519 5527 5540 5559 5566 5562 5564 5571 5580 5589 5603 5619 5606 5605 5607 5607 5604 5604 5604 5599 5603 5602 5599 5601 5611 5616 5623 5622 5621 5622 5624 5624 5627 5628 5631 5636 5642 5646 5654
5501 5505 5507 5504 5501 5498 5495 5493 5494 5494 5493 5493 5497 5501 5507 5514 5524 5543 5555 5559 5562 5563 5571 5573 5582 5588 5605 5600 5601 5604 5602 5598 5598 5598 5595 5598 5589 5594 5597 5604 5614 5619 5617 5621 5624 5617 5619 5620 5620 5624 5630 5633 5635 5639
5489 5493 5495 5494 5493 5488 5487 5483 5485 5485 5487 5487 5491 5496 5507 5522 5536 5541 5544 5548 5553 5555 5559 5569 5573 5586 5596 5593 5592 5595 5591 5587 5591 5590 5590 5585 5581 5591 5597 5599 5612 5618 5618 5620 5616 5616 5611 5613 5614 5620 5623 5626 5629 5632
5474 5478 5481 5482 5482 5479 5476 5476 5476 5478 5479 5481 5485 5496 5513 5521 5528 5531 5540 5544 5547 5559 5557 5570 5576 5585 5593 5590 5587 5584 5583 5580 5582 5584 5589 5578 5582 5589 5594 5597 5608 5615 5619 5618 5616 5610 5610 5613 5612 5612 5614 5616 5617 5620
5452 5461 5466 5470 5471 5469 5468 5468 5470 5474 5476 5481 5486 5494 5503 5515 5522 5533 5537 5548 5555 5565 5570 5573 5580 5583 5590 5591 5587 5579 5580 5578 5580 5579 5581 5577 5579 5581 5582 5591 5599 5605 5610 5612 5613 5610 5604 5605 5606 5606 5607 5608 5610 5610
5429 5439 5446 5453 5458 5459 5459 5461 5464 5469 5475 5478 5481 5493 5504 5512 5512 5534 5544 5553 5559 5573 5578 5581 5581 5586 5586 5586 5578 5579 5579 5573 5575 5572 5571 5570 5574 5573 5573 5580 5589 5596 5600 5606 5606 5606 5603 5600 5602 5599 5595 5596 5599 5598
5413 5423 5430 5437 5445 5450 5454 5456 5461 5465 5468 5475 5489 5492 5506 5517 5531 5548 5558 5564 5571 5579 5581 5580 5577 5583 5578 5582 5573 5580 5575 5573 5568 5565 5571 5565 5566 5565 5565 5571 5577 5578 5583 5592 5595 5595 5593 5590 5589 5589 5589 5589 5589 5587
5399 5413 5424 5431 5438 5443 5446 5449 5454 5459 5465 5478 5495 5501 5516 5534 5542 5551 5555 5563 5575 5579 5581 5581 5575 5575 5571 5576 5568 5568 5573 5568 5565 5563 5562 5563 5561 5562 5566 5569 5572 5572 5574 5577 5582 5582 5583 5584 5580 5577 5578 5578 5578 5576
5404 5416 5429 5430 5434 5438 5440 5445 5449 5455 5465 5478 5496 5515 5530 5534 5545 5552 5562 5567 5574 5577 5578 5577 5571 5571 5569 5566 5572 5570 5567 5563 5561 5559 5560 5558 5561 5562 5565 5567 5566 5567 5567 5567 5572 5576 5578 5575 5574 5572 5569 5566 5566 5565
5422 5435 5431 5429 5432 5434 5439 5444 5446 5459 5476 5498 5511 5522 5528 5538 5548 5558 5565 5572 5574 5579 5568 5567 5570 5567 5560 5560 5562 5556 5560 5559 5560 5560 5559 5560 5563 5563 5562 5561 5561 5562 5562 5565 5568 5570 5572 5572 5570 5566 5563 5560 5560 5559
5429 5426 5426 5429 5430 5435 5442 5447 5454 5471 5489 5503 5512 5521 5535 5546 5554 5561 5567 5571 5578 5570 5568 5568 5560 5562 5557 5558 5554 5555 5551 5549 5552 5555 5557 5558 5561 5560 5559 5559 5561 5561 5561 5563 5563 5563 5564 5565 5564 5558 5556 5553 5550 5550
5424 5426 5427 5431 5438 5446 5450 5453 5462 5482 5501 5507 5517 5527 5540 5547 5550 5558 5565 5570 5569 5568 5563 5556 5556 5551 5550 5544 5551 5551 5549 5548 5552 5554 5555 5556 5555 5556 5556 5558 5558 5558 5558 5559 5561 5558 5557 5557 5556 5553 5552 5552 5549 5547
5420 5424 5430 5438 5446 5450 5455 5464 5475 5487 5503 5517 5522 5535 5542 5545 5550 5555 5560 5560 5560 5559 5557 5553 5550 5548 5547 5547 5547 5549 5551 5550 5550 5551 5553 5552 5552 5552 5552 5553 5553 5554 5554 5555 5555 5551 5555 5553 5546 5546 5542 5539 5538 5538
5423 5424 5430 5436 5443 5449 5462 5481 5490 5500 5513 5523 5527 5536 5539 5541 5544 5548 5552 5550 5554 5543 5546 5544 5548 5550 5547 5549 5550 5551 5553 5552 5552 5551 5551 5549 5547 5546 5545 5546 5547 5547 5552 5553 5550 5548 5543 5545 5548 5546 5543 5541 5540 5540
5426 5431 5439 5446 5455 5468 5476 5492 5501 5510 5524 5530 5532 5534 5535 5537 5537 5544 5544 5549 5546 5544 5544 5545 5548 5547 5548 5554 5554 5552 5552 5551 5550 5548 5545 5544 5543 5541 5540 5540 5540 5541 5542 5540 5541 5541 5541 5539 5540 5539 5539 5541 5541 5542
5437 5444 5454 5466 5477 5478 5495 5505 5517 5523 5526 5526 5527 5534 5531 5534 5535 5538 5542 5536 5539 5540 5544 5546 5548 5548 5550 5550 5550 5550 5549 5549 5546 5544 5543 5541 5540 5539 5538 5537 5535 5536 5536 5536 5537 5539 5540 5540 5539 5539 5539 5536 5535 5538
5453 5462 5472 5480 5484 5494 5508 5514 5519 5521 5523 5527 5530 5534 5534 5534 5532 5534 5537 5537 5537 5538 5542 5546 5544 5543 5542 5544 5543 5543 5543 5541 5540 5539 5538 5536 5535 5536 5537 5534 5534 5536 5536 5535 5534 5535 5537 5538 5538 5539 5539 5539 5535 5533
5462 5470 5476 5472 5493 5506 5512 5515 5518 5522 5525 5528 5531 5530 5533 5528 5533 5532 5531 5532 5532 5536 5536 5537 5538 5537 5538 5538 5538 5539 5540 5538 5536 5536 5537 5536 5536 5536 5535 5534 5534 5535 5536 5535 5536 5539 5539 5541 5541 5541 5540 5540 5540 5536
5468 5489 5493 5505 5505 5515 5516 5518 5523 5526 5530 5534 5535 5533 5531 5539 5538 5520 5527 5531 5531 5532 5532 5534 5534 5534 5535 5535 5536 5535 5537 5537 5535 5538 5539 5538 5536 5535 5535 5536 5536 5539 5541 5541 5541 5542 5541 5539 5540 5543 5542 5543 5541 5542
5484 5496 5498 5503 5513 5521 5519 5524 5529 5532 5537 5540 5534 5538 5540 5541 5534 5528 5527 5528 5530 5530 5531 5532 5533 5533 5533 5534 5534 5535 5536 5535 5536 5537 5537 5539 5540 5541 5539 5540 5541 5543 5545 5544 5544 5545 5544 5542 5543 5543 5542 5544 5544 5543
5492 5499 5506 5508 5521 5521 5529 5529 5530 5529 5532 5529 5537 5535 5537 5534 5528 5526 5528 5531 5531 5532 5532 5533 5534 5534 5536 5535 5536 5536 5535 5536 5538 5541 5544 5544 5544 5545 5546 5546 5546 5547 5546 5547 5548 5549 5546 5545 5543 5542 5541 5541 5542 5542
5496 5499 5509 5514 5524 5518 5513 5518 5519 5521 5521 5525 5528 5527 5529 5525 5527 5529 5531 5531 5530 5531 5531 5532 5534 5533 5534 5534 5535 5536 5537 5537 5539 5539 5539 5539 5543 5549 5549 5548 5549 5549 5548 5547 5547 5547 5547 5546 5544 5541 5539 5539 5538 5537
5500 5501 5509 5513 5514 5510 5511 5512 5518 5519 5520 5521 5520 5520 5521 5525 5528 5530 5531 5531 5531 5531 5532 5533 5534 5534 5535 5535 5536 5538 5539 5539 5540 5540 5539 5541 5544 5550 5549 5547 5547 5548 5549 5548 5546 5544 5542 5541 5540 5538 5536 5534 5533 5532
5499 5503 5508 5506 5508 5510 5510 5511 5513 5516 5518 5519 5518 5520 5521 5523 5527 5531 5531 5532 5532 5535 5536 5536 5537 5537 5538 5539 5540 5541 5540 5543 5544 5545 5545 5547 5548 5551 5552 5552 5550 5549 5549 5547 5545 5544 5541 5539 5539 5536 5533 5531 5532 5528
5499 5500 5504 5509 5509 5510 5512 5514 5515 5520 5521 5520 5519 5520 5522 5522 5526 5534 5537 5538 5538 5537 5537 5540 5542 5543 5544 5542 5542 5541 5541 5543 5544 5546 5548 5549 5548 5549 5552 5552 5551 5550 5549 5545 5543 5542 5541 5538 5537 5536 5535 5531 5529 5528
5498 5501 5504 5508 5510 5515 5516 5518 5522 5525 5523 5527 5528 5529 5530 5532 5536 5538 5541 5543 5542 5540 5540 5541 5542 5544 5546 5546 5545 5546 5545 5547 5548 5547 5546 5545 5541 5540 5543 5545 5545 5544 5542 5541 5540 5541 5540 5538 5535 5533 5531 5529 5529 5527